Comisión Nacional del Agua
Subdirección General Técnica
Estación: Salina Cruz
Clave: C20101
Estado: Oaxaca
Municipio: Salina Cruz

Fecha, Precipitación(mm), Temperatura Media(ºC), Temperatura Máxima(ºC), Temperatura Mínima(ºC), Evaporación(mm)
1968/06/01,0.00,30.10,35.80,24.40,
1968/06/02,0.00,31.00,37.00,25.00,
1968/06/03,0.00,30.00,34.00,26.00,
1968/06/04,0.00,29.10,33.00,25.20,
1968/06/05,0.00,28.50,32.80,24.20,
1968/06/06,0.00,30.60,32.00,29.20,
1968/06/07,1.00,29.70,33.20,26.20,
1968/06/08,0.00,29.00,33.00,25.00,
1968/06/09,0.00,29.00,32.50,25.50,
1968/06/10,0.00,29.60,33.00,26.20,
1968/06/11,0.00,29.40,32.80,26.00,
1968/06/12,2.80,28.30,33.20,23.40,
1968/06/13,4.00,32.00,37.80,26.20,
1968/06/14,0.00,31.35,36.70,26.00,
1968/06/15,0.00,31.55,36.70,26.40,
1968/06/16,44.00,28.25,33.50,23.00,
1968/06/17,0.20,29.50,34.50,24.50,
1968/06/18,6.60,28.85,33.20,24.50,
1968/06/19,82.00,24.60,26.00,23.20,
1968/06/20,1.90,27.20,31.80,22.60,
1968/06/21,2.00,26.85,30.00,23.70,
1968/06/22,0.00,28.15,30.50,25.80,
1968/06/23,0.00,29.40,32.40,26.40,
1968/06/24,0.00,29.00,33.00,25.00,
1968/06/25,0.00,28.60,32.40,24.80,
1968/06/26,0.00,29.00,32.20,25.80,
1968/06/27,0.00,29.05,34.30,23.80,
1968/06/28,0.00,28.10,31.80,24.40,
1968/06/29,8.20,28.30,32.80,23.80,
1968/06/30,39.30,27.20,32.40,22.00,
1968/07/01,0.00,29.70,35.00,24.40,
1968/07/02,28.20,28.65,33.30,24.00,
1968/07/03,0.00,29.15,33.80,24.50,
1968/07/04,0.00,29.75,34.30,25.20,
1968/07/05,2.60,28.45,32.60,24.30,
1968/07/06,20.00,27.75,32.70,22.80,
1968/07/07,0.00,28.85,32.00,25.70,
1968/07/08,0.00,30.20,34.70,25.70,
1968/07/09,0.00,30.80,36.00,25.60,
1968/07/10,0.00,29.80,34.20,25.40,
1968/07/11,4.80,29.00,35.20,22.80,
1968/07/12,0.00,31.20,37.40,25.00,
1968/07/13,62.60,28.00,33.20,22.80,
1968/07/14,0.00,28.00,33.00,23.00,
1968/07/15,15.60,29.40,35.30,23.50,
1968/07/16,0.00,28.05,32.60,23.50,
1968/07/17,0.00,29.80,34.80,24.80,
1968/07/18,0.00,30.10,35.60,24.60,
1968/07/19,0.00,29.75,35.20,24.30,
1968/07/20,0.00,30.45,35.70,25.20,
1968/07/21,0.00,30.80,34.60,27.00,
1968/07/22,0.00,29.55,34.50,24.60,
1968/07/23,0.00,31.25,35.70,26.80,
1968/07/24,0.00,31.35,36.70,26.00,
1968/07/25,0.00,30.75,36.00,25.50,
1968/07/26,0.00,31.65,35.80,27.50,
1968/07/27,0.00,31.85,36.70,27.00,
1968/07/28,0.00,31.30,35.40,27.20,
1968/07/29,0.00,31.40,35.20,27.60,
1968/07/30,0.00,32.10,37.00,27.20,
1968/07/31,0.00,31.65,35.80,27.50,
1968/08/01,0.00,31.50,37.20,25.80,
1968/08/02,0.00,30.55,34.30,26.80,
1968/08/03,0.00,31.15,36.80,25.50,
1968/08/04,0.00,30.40,34.80,26.00,
1968/08/05,36.00,28.10,32.00,24.20,
1968/08/06,0.00,30.05,33.30,26.80,
1968/08/07,0.00,31.10,35.00,27.20,
1968/08/08,0.00,31.30,35.40,27.20,
1968/08/09,0.00,30.90,36.30,25.50,
1968/08/10,0.00,31.55,36.50,26.60,
1968/08/11,0.00,32.70,37.20,28.20,
1968/08/12,0.00,32.15,36.80,27.50,
1968/08/13,186.70,29.35,36.50,22.20,
1968/08/14,0.00,26.45,29.40,23.50,
1968/08/15,0.00,29.00,33.60,24.40,
1968/08/16,0.00,29.50,34.80,24.20,
1968/08/17,0.00,30.55,35.70,25.40,
1968/08/18,0.00,29.50,33.60,25.40,
1968/08/19,20.60,28.95,35.30,22.60,
1968/08/20,6.00,29.30,34.40,24.20,
1968/08/21,0.00,29.30,33.00,25.60,
1968/08/22,72.00,27.10,32.00,22.20,
1968/08/23,0.00,29.25,33.00,25.50,
1968/08/24,0.00,30.00,33.80,26.20,
1968/08/25,0.00,30.30,34.00,26.60,
1968/08/26,0.00,30.05,34.50,25.60,
1968/08/27,0.00,29.55,34.40,24.70,
1968/08/28,0.00,29.85,35.40,24.30,
1968/08/29,0.00,29.50,35.00,24.00,
1968/08/30,0.00,29.40,33.30,25.50,
1968/08/31,0.00,30.10,34.80,25.40,
1968/09/01,0.00,29.75,35.00,24.50,
1968/09/02,0.00,30.35,35.20,25.50,
1968/09/03,30.90,28.00,33.00,23.00,
1968/09/04,0.00,29.70,36.20,23.20,
1968/09/05,0.00,29.70,35.40,24.00,
1968/09/06,0.00,30.75,34.50,27.00,
1968/09/07,0.00,30.95,35.60,26.30,
1968/09/08,0.00,30.10,35.50,24.70,
1968/09/09,13.90,27.70,32.00,23.40,
1968/09/10,22.30,27.95,32.30,23.60,
1968/09/11,11.50,26.70,30.80,22.60,
1968/09/12,0.00,28.60,34.20,23.00,
1968/09/13,0.00,29.70,34.80,24.60,
1968/09/14,41.80,28.10,33.20,23.00,
1968/09/15,1.00,28.40,32.00,24.80,
1968/09/16,0.00,28.75,32.50,25.00,
1968/09/17,10.60,30.30,35.20,25.40,
1968/09/18,4.70,29.60,34.20,25.00,
1968/09/19,4.20,29.20,34.40,24.00,
1968/09/20,5.80,28.70,34.40,23.00,
1968/09/21,6.00,28.70,34.00,23.40,
1968/09/22,0.00,29.60,35.20,24.00,
1968/09/23,6.00,29.05,34.40,23.70,
1968/09/24,0.00,30.00,36.00,24.00,
1968/09/25,0.00,28.85,34.70,23.00,
1968/09/26,0.00,29.50,34.50,24.50,
1968/09/27,0.00,29.35,35.10,23.60,
1968/09/28,0.00,29.60,34.70,24.50,
1968/09/29,0.00,29.90,35.80,24.00,
1968/09/30,0.00,30.10,34.20,26.00,
1968/10/01,0.00,29.60,34.00,25.20,
1968/10/02,0.00,30.35,35.00,25.70,
1968/10/03,0.00,31.60,36.50,26.70,
1968/10/04,0.00,30.60,34.50,26.70,
1968/10/05,43.40,27.55,32.50,22.60,
1968/10/06,0.00,28.35,33.00,23.70,
1968/10/07,0.00,28.85,33.20,24.50,
1968/10/08,0.00,28.95,33.40,24.50,
1968/10/09,0.00,29.50,33.60,25.40,
1968/10/10,16.80,27.75,33.50,22.00,
1968/10/11,0.00,29.10,34.00,24.20,
1968/10/12,0.00,29.35,34.00,24.70,
1968/10/13,0.00,30.50,35.20,25.80,
1968/10/14,0.00,30.95,36.50,25.40,
1968/10/15,0.00,30.10,35.00,25.20,
1968/10/16,0.00,29.90,36.00,23.80,
1968/10/17,0.00,28.10,33.80,22.40,
1968/10/18,0.00,28.40,32.40,24.40,
1968/10/19,0.00,28.95,31.60,26.30,
1968/10/20,0.00,29.25,31.90,26.60,
1968/10/21,0.00,30.70,35.20,26.20,
1968/10/22,0.00,30.15,35.80,24.50,
1968/10/23,0.00,29.20,33.40,25.00,
1968/10/24,0.00,29.45,34.40,24.50,
1968/10/25,0.00,29.20,33.00,25.40,
1968/10/26,0.00,27.85,31.30,24.40,
1968/10/27,0.00,28.00,32.40,23.60,
1968/10/28,0.00,28.05,31.60,24.50,
1968/10/29,0.00,27.15,30.60,23.70,
1968/10/30,0.00,27.70,33.00,22.40,
1968/10/31,0.00,27.30,33.00,21.60,
1968/11/01,0.00,29.80,33.20,26.40,
1968/11/02,0.00,30.75,34.30,27.20,
1968/11/03,0.00,29.75,34.50,25.00,
1968/11/04,0.00,30.00,34.20,25.80,
1968/11/05,0.00,28.40,33.40,23.40,
1968/11/06,0.00,28.75,32.00,25.50,
1968/11/07,0.00,28.85,33.00,24.70,
1968/11/08,0.00,30.20,35.60,24.80,
1968/11/09,0.00,29.50,34.20,24.80,
1968/11/10,0.00,26.05,30.60,21.50,
1968/11/11,0.60,26.80,31.60,22.00,
1968/11/12,0.00,25.55,28.50,22.60,
1968/11/13,0.00,26.10,30.60,21.60,
1968/11/14,0.00,26.20,32.20,20.20,
1968/11/15,0.00,26.10,30.20,22.00,
1968/11/16,0.00,26.90,30.50,23.30,
1968/11/17,0.00,27.80,30.60,25.00,
1968/11/18,0.00,28.70,31.50,25.90,
1968/11/19,0.00,28.30,30.50,26.10,
1968/11/20,0.00,26.35,29.50,23.20,
1968/11/21,0.00,25.55,27.70,23.40,
1968/11/22,0.00,26.60,30.60,22.60,
1968/11/23,0.00,25.95,30.90,21.00,
1968/11/24,0.00,26.10,31.70,20.50,
1968/11/25,0.00,27.70,31.90,23.50,
1968/11/26,0.00,26.40,32.00,20.80,
1968/11/27,0.00,26.80,30.80,22.80,
1968/11/28,0.00,28.60,34.20,23.00,
1968/11/29,0.00,29.25,33.70,24.80,
1968/11/30,0.00,27.90,31.20,24.60,
1968/12/01,0.00,28.75,33.50,24.00,
1968/12/02,0.00,27.40,31.80,23.00,
1968/12/03,0.00,28.55,32.70,24.40,
1968/12/04,0.00,26.70,31.60,21.80,
1968/12/05,0.00,27.05,32.60,21.50,
1968/12/06,0.00,26.60,32.70,20.50,
1968/12/07,0.00,26.70,32.50,20.90,
1968/12/08,0.00,28.25,32.20,24.30,
1968/12/09,0.00,26.55,30.50,22.60,
1968/12/10,0.00,27.35,31.20,23.50,
1968/12/11,0.00,27.75,31.50,24.00,
1968/12/12,0.00,27.90,33.40,22.40,
1968/12/13,0.00,26.80,32.60,21.00,
1968/12/14,0.00,27.55,30.50,24.60,
1968/12/15,0.00,24.90,28.80,21.00,
1968/12/16,0.00,25.15,28.80,21.50,
1968/12/17,0.00,25.00,31.00,19.00,
1968/12/18,0.00,24.50,28.40,20.60,
1968/12/19,0.00,26.10,30.50,21.70,
1968/12/20,0.00,27.55,33.50,21.60,
1968/12/21,0.00,27.15,31.00,23.30,
1968/12/22,0.00,28.85,32.20,25.50,
1968/12/23,0.00,27.50,31.20,23.80,
1968/12/24,0.00,25.15,29.30,21.00,
1968/12/25,0.00,25.00,28.50,21.50,
1968/12/26,0.00,25.80,30.60,21.00,
1968/12/27,0.00,26.65,29.70,23.60,
1968/12/28,0.00,27.75,31.50,24.00,
1968/12/29,0.00,28.30,33.40,23.20,
1968/12/30,0.00,28.65,35.00,22.30,
1968/12/31,0.00,29.60,34.00,25.20,
1969/01/01,0.00,28.55,31.20,25.90,
1969/01/02,0.00,27.85,31.30,24.40,
1969/01/03,0.00,27.20,31.10,23.30,
1969/01/04,0.00,26.40,31.20,21.60,
1969/01/05,0.00,25.70,29.80,21.60,
1969/01/06,0.00,26.00,30.00,22.00,
1969/01/07,0.00,26.50,30.00,23.00,
1969/01/08,0.00,25.50,30.40,20.60,
1969/01/09,0.00,27.15,30.70,23.60,
1969/01/10,0.00,28.00,31.60,24.40,
1969/01/11,0.00,26.45,30.50,22.40,
1969/01/12,0.00,26.45,30.50,22.40,
1969/01/13,0.00,26.75,30.70,22.80,
1969/01/14,0.00,27.35,31.70,23.00,
1969/01/15,0.00,28.00,33.00,23.00,
1969/01/16,0.00,26.05,31.90,20.20,
1969/01/17,0.00,26.50,31.00,22.00,
1969/01/18,0.00,27.35,30.10,24.60,
1969/01/19,0.00,27.00,32.00,22.00,
1969/01/20,0.00,26.65,31.80,21.50,
1969/01/21,0.00,25.80,30.00,21.60,
1969/01/22,0.00,26.10,31.00,21.20,
1969/01/23,0.00,26.20,30.00,22.40,
1969/01/24,0.00,26.95,31.30,22.60,
1969/01/25,0.00,27.55,32.60,22.50,
1969/01/26,0.00,27.75,31.90,23.60,
1969/01/27,0.00,26.95,32.70,21.20,
1969/01/28,0.00,29.05,35.50,22.60,
1969/01/29,0.00,29.10,35.40,22.80,
1969/01/30,0.00,28.80,34.00,23.60,
1969/01/31,0.00,29.95,33.50,26.40,
1969/02/01,0.00,29.15,35.10,23.20,
1969/02/02,0.00,27.50,32.40,22.60,
1969/02/03,0.00,28.10,34.00,22.20,
1969/02/04,0.00,25.45,30.30,20.60,
1969/02/05,0.00,27.75,31.90,23.60,
1969/02/06,0.00,25.90,30.40,21.40,
1969/02/07,0.00,26.70,31.00,22.40,
1969/02/08,0.00,27.60,31.00,24.20,
1969/02/09,0.00,28.40,32.00,24.80,
1969/02/10,0.00,27.40,31.80,23.00,
1969/02/11,0.00,27.00,32.00,22.00,
1969/02/12,0.00,27.50,32.00,23.00,
1969/02/13,0.00,27.20,30.60,23.80,
1969/02/14,0.00,27.90,30.80,25.00,
1969/02/15,0.00,28.50,31.50,25.50,
1969/02/16,0.00,29.10,34.80,23.40,
1969/02/17,0.00,27.85,33.70,22.00,
1969/02/18,0.00,29.40,34.00,24.80,
1969/02/19,0.00,27.80,31.80,23.80,
1969/02/20,0.00,28.85,34.10,23.60,
1969/02/21,0.00,27.50,31.00,24.00,
1969/02/22,0.00,28.50,31.50,25.50,
1969/02/23,0.00,28.80,34.40,23.20,
1969/02/24,0.00,28.55,33.50,23.60,
1969/02/25,0.00,29.40,33.20,25.60,
1969/02/26,0.00,28.85,34.10,23.60,
1969/02/27,0.00,28.50,32.00,25.00,
1969/02/28,0.00,-,-,-,
1969/03/01,0.00,29.65,35.90,23.40,
1969/03/02,0.00,29.00,32.00,26.00,
1969/03/03,3.20,28.60,31.40,25.80,
1969/03/04,0.00,24.70,29.60,19.80,
1969/03/05,0.00,26.40,33.00,19.80,
1969/03/06,0.00,28.90,32.40,25.40,
1969/03/07,0.00,27.10,31.20,23.00,
1969/03/08,0.00,28.35,31.50,25.20,
1969/03/09,0.00,27.15,31.90,22.40,
1969/03/10,0.00,28.00,32.50,23.50,
1969/03/11,0.00,28.80,34.20,23.40,
1969/03/12,0.00,27.50,31.50,23.50,
1969/03/13,0.00,27.25,32.00,22.50,
1969/03/14,0.00,27.90,34.40,21.40,
1969/03/15,0.00,28.55,31.70,25.40,
1969/03/16,0.00,28.65,31.90,25.40,
1969/03/17,0.00,26.75,32.00,21.50,
1969/03/18,0.00,26.25,30.90,21.60,
1969/03/19,0.00,28.30,33.10,23.50,
1969/03/20,0.00,28.75,34.90,22.60,
1969/03/21,0.00,30.45,36.30,24.60,
1969/03/22,0.00,29.40,34.40,24.40,
1969/03/23,0.00,28.90,31.80,26.00,
1969/03/24,0.00,29.90,33.60,26.20,
1969/03/25,5.20,28.85,34.20,23.50,
1969/03/26,0.00,27.95,34.40,21.50,
1969/03/27,0.00,25.20,29.00,21.40,
1969/03/28,0.00,27.15,32.50,21.80,
1969/03/29,0.00,27.50,32.50,22.50,
1969/03/30,0.00,28.50,31.60,25.40,
1969/03/31,0.00,27.95,31.30,24.60,
1969/04/01,0.00,31.20,37.60,24.80,
1969/04/02,0.00,29.65,35.50,23.80,
1969/04/03,0.00,29.50,34.00,25.00,
1969/04/04,0.00,29.40,33.20,25.60,
1969/04/05,0.00,29.20,33.20,25.20,
1969/04/06,0.00,29.40,33.80,25.00,
1969/04/07,0.00,30.80,35.40,26.20,
1969/04/08,0.00,29.70,33.20,26.20,
1969/04/09,0.00,30.00,33.40,26.60,
1969/04/10,0.00,29.55,32.50,26.60,
1969/04/11,0.00,29.30,32.00,26.60,
1969/04/12,0.00,29.90,32.00,27.80,
1969/04/13,0.00,29.80,32.40,27.20,
1969/04/14,0.00,29.80,33.20,26.40,
1969/04/15,0.00,29.20,32.40,26.00,
1969/04/16,0.00,30.20,32.20,28.20,
1969/04/17,0.00,30.00,32.00,28.00,
1969/04/18,0.00,30.50,33.40,27.60,
1969/04/19,0.00,31.55,36.50,26.60,
1969/04/20,0.00,30.50,33.60,27.40,
1969/04/21,0.00,31.80,35.40,28.20,
1969/04/22,0.00,30.00,33.00,27.00,
1969/04/23,0.00,30.00,34.00,26.00,
1969/04/24,0.00,29.00,32.00,26.00,
1969/04/25,0.00,30.10,34.20,26.00,
1969/04/26,0.00,29.50,33.00,26.00,
1969/04/27,0.00,30.00,33.40,26.60,
1969/04/28,0.00,30.00,34.00,26.00,
1969/04/29,0.00,32.50,37.40,27.60,
1969/04/30,0.00,31.60,36.00,27.20,
1969/05/01,0.00,30.45,33.50,27.40,
1969/05/02,0.00,29.85,33.50,26.20,
1969/05/03,0.00,29.45,33.10,25.80,
1969/05/04,0.00,30.10,33.60,26.60,
1969/05/05,0.00,30.10,33.80,26.40,
1969/05/06,0.00,29.70,33.40,26.00,
1969/05/07,0.00,30.10,34.00,26.20,
1969/05/08,0.00,29.25,33.70,24.80,
1969/05/09,0.00,31.70,38.00,25.40,
1969/05/10,0.00,32.20,37.50,26.90,
1969/05/11,0.00,30.35,34.90,25.80,
1969/05/12,0.00,30.75,34.70,26.80,
1969/05/13,0.00,30.60,35.20,26.00,
1969/05/14,0.00,30.95,34.90,27.00,
1969/05/15,0.00,30.90,34.60,27.20,
1969/05/16,0.00,30.80,34.00,27.60,
1969/05/17,0.00,30.00,33.20,26.80,
1969/05/18,0.00,31.35,37.30,25.40,
1969/05/19,0.00,32.00,38.40,25.60,
1969/05/20,0.00,31.25,36.50,26.00,
1969/05/21,0.00,31.30,36.80,25.80,
1969/05/22,0.00,31.05,36.90,25.20,
1969/05/23,0.00,32.00,36.70,27.30,
1969/05/24,0.00,31.00,36.80,25.20,
1969/05/25,0.00,30.85,36.30,25.40,
1969/05/26,0.00,30.70,35.90,25.50,
1969/05/27,0.00,31.20,37.00,25.40,
1969/05/28,0.00,30.95,36.70,25.20,
1969/05/29,0.00,30.80,36.00,25.60,
1969/05/30,0.00,31.00,37.00,25.00,
1969/05/31,0.00,30.10,34.80,25.40,
1969/06/01,0.00,30.60,34.40,26.80,
1969/06/02,0.00,30.95,34.90,27.00,
1969/06/03,0.00,32.80,38.20,27.40,
1969/06/04,0.00,33.00,38.70,27.30,
1969/06/05,13.20,31.10,35.20,27.00,
1969/06/06,0.00,31.50,36.10,26.90,
1969/06/07,0.00,30.20,34.80,25.60,
1969/06/08,0.00,30.55,34.50,26.60,
1969/06/09,0.00,31.65,36.50,26.80,
1969/06/10,11.50,31.10,36.80,25.40,
1969/06/11,80.60,30.20,35.00,25.40,
1969/06/12,40.80,30.15,34.30,26.00,
1969/06/13,0.40,30.20,34.40,26.00,
1969/06/14,0.00,30.90,36.40,25.40,
1969/06/15,0.00,31.75,37.50,26.00,
1969/06/16,0.00,31.70,37.00,26.40,
1969/06/17,0.00,31.75,37.80,25.70,
1969/06/18,58.00,29.00,34.20,23.80,
1969/06/19,348.40,27.45,31.90,23.00,
1969/06/20,69.30,27.35,32.30,22.40,
1969/06/21,0.00,29.65,34.50,24.80,
1969/06/22,1.00,27.70,30.20,25.20,
1969/06/23,0.00,32.15,38.00,26.30,
1969/06/24,0.00,30.30,34.60,26.00,
1969/06/25,0.00,30.85,34.50,27.20,
1969/06/26,0.00,30.00,33.00,27.00,
1969/06/27,0.00,29.80,34.00,25.60,
1969/06/28,39.50,30.95,38.90,23.00,
1969/06/29,0.80,27.75,31.00,24.50,
1969/06/30,0.00,30.05,34.60,25.50,
1969/07/01,0.00,28.90,33.00,24.80,
1969/07/02,85.00,28.40,32.80,24.00,
1969/07/03,27.30,25.95,28.90,23.00,
1969/07/04,2.50,27.65,31.50,23.80,
1969/07/05,25.40,27.50,31.50,23.50,
1969/07/06,0.00,28.75,33.50,24.00,
1969/07/07,0.00,29.65,35.60,23.70,
1969/07/08,0.00,30.25,35.70,24.80,
1969/07/09,42.00,27.95,33.90,22.00,
1969/07/10,30.70,28.65,34.50,22.80,
1969/07/11,0.00,30.15,36.30,24.00,
1969/07/12,0.00,30.00,34.80,25.20,
1969/07/13,28.80,28.85,34.00,23.70,
1969/07/14,3.00,29.10,34.50,23.70,
1969/07/15,0.00,30.60,36.50,24.70,
1969/07/16,0.00,30.55,36.60,24.50,
1969/07/17,0.00,31.20,36.40,26.00,
1969/07/18,0.00,31.35,35.50,27.20,
1969/07/19,0.00,30.80,35.60,26.00,
1969/07/20,0.00,31.50,36.00,27.00,
1969/07/21,0.00,30.25,35.00,25.50,
1969/07/22,12.60,29.65,36.00,23.30,
1969/07/23,0.00,29.80,33.90,25.70,
1969/07/24,0.00,30.40,35.00,25.80,
1969/07/25,0.00,30.20,34.70,25.70,
1969/07/26,17.60,28.50,34.80,22.20,
1969/07/27,0.00,31.05,35.50,26.60,
1969/07/28,0.00,30.60,36.00,25.20,
1969/07/29,0.00,31.70,36.40,27.00,
1969/07/30,0.00,31.35,36.70,26.00,
1969/07/31,22.30,28.85,34.50,23.20,
1969/08/01,0.00,29.95,34.90,25.00,
1969/08/02,0.00,30.35,35.50,25.20,
1969/08/03,0.00,30.00,35.00,25.00,
1969/08/04,0.00,30.25,35.30,25.20,
1969/08/05,0.00,28.75,33.50,24.00,
1969/08/06,0.00,28.80,32.60,25.00,
1969/08/07,23.00,28.05,32.80,23.30,
1969/08/08,0.00,30.20,36.40,24.00,
1969/08/09,38.20,29.25,33.70,24.80,
1969/08/10,143.90,27.00,32.00,22.00,
1969/08/11,3.00,26.50,31.20,21.80,
1969/08/12,0.00,27.70,32.40,23.00,
1969/08/13,2.20,28.10,33.20,23.00,
1969/08/14,0.00,27.85,32.70,23.00,
1969/08/15,0.00,28.15,32.50,23.80,
1969/08/16,0.00,28.75,32.50,25.00,
1969/08/17,44.40,28.50,32.60,24.40,
1969/08/18,30.00,26.70,29.00,24.40,
1969/08/19,119.30,26.50,30.00,23.00,
1969/08/20,49.40,25.00,28.20,21.80,
1969/08/21,87.20,26.00,30.00,22.00,
1969/08/22,23.20,26.20,30.00,22.40,
1969/08/23,0.00,28.10,31.20,25.00,
1969/08/24,0.00,28.10,33.20,23.00,
1969/08/25,0.00,28.65,34.50,22.80,
1969/08/26,5.80,28.05,32.60,23.50,
1969/08/27,23.60,28.10,33.00,23.20,
1969/08/28,27.40,26.25,29.50,23.00,
1969/08/29,0.00,26.90,31.00,22.80,
1969/08/30,118.90,27.30,32.00,22.60,
1969/08/31,52.30,27.30,32.10,22.50,
1969/09/01,0.40,27.60,31.80,23.40,
1969/09/02,0.00,29.15,33.80,24.50,
1969/09/03,0.00,29.45,33.90,25.00,
1969/09/04,0.00,28.95,32.50,25.40,
1969/09/05,37.50,27.70,32.00,23.40,
1969/09/06,238.90,26.00,30.00,22.00,
1969/09/07,19.20,27.75,32.30,23.20,
1969/09/08,0.00,28.95,34.70,23.20,
1969/09/09,0.00,28.50,32.80,24.20,
1969/09/10,9.70,27.70,32.60,22.80,
1969/09/11,0.00,29.00,35.30,22.70,
1969/09/12,0.00,30.00,34.20,25.80,
1969/09/13,0.00,28.80,34.20,23.40,
1969/09/14,0.00,29.25,34.50,24.00,
1969/09/15,0.00,29.80,35.00,24.60,
1969/09/16,0.00,30.20,35.60,24.80,
1969/09/17,0.00,29.45,33.90,25.00,
1969/09/18,2.00,29.65,34.80,24.50,
1969/09/19,0.00,30.20,35.40,25.00,
1969/09/20,0.00,29.30,33.90,24.70,
1969/09/21,0.00,28.70,32.00,25.40,
1969/09/22,2.20,28.50,33.50,23.50,
1969/09/23,0.00,30.05,35.10,25.00,
1969/09/24,12.30,27.95,32.20,23.70,
1969/09/25,54.50,27.10,31.40,22.80,
1969/09/26,40.40,26.40,30.20,22.60,
1969/09/27,4.20,25.30,28.00,22.60,
1969/09/28,0.00,28.60,34.20,23.00,
1969/09/29,0.00,28.10,32.40,23.80,
1969/09/30,0.00,29.10,33.90,24.30,
1969/10/01,0.00,27.80,33.60,22.00,
1969/10/02,0.00,27.00,32.00,22.00,
1969/10/03,0.00,28.35,32.70,24.00,
1969/10/04,0.00,28.20,32.80,23.60,
1969/10/05,4.40,28.95,33.70,24.20,
1969/10/06,93.50,27.80,32.40,23.20,
1969/10/07,22.00,26.75,30.90,22.60,
1969/10/08,0.00,27.10,31.00,23.20,
1969/10/09,0.00,27.85,32.90,22.80,
1969/10/10,0.00,27.60,32.90,22.30,
1969/10/11,0.00,27.80,31.80,23.80,
1969/10/12,0.00,27.75,31.30,24.20,
1969/10/13,0.00,28.75,33.00,24.50,
1969/10/14,0.00,28.40,32.50,24.30,
1969/10/15,0.00,27.65,33.00,22.30,
1969/10/16,0.00,28.75,34.50,23.00,
1969/10/17,0.00,28.90,33.40,24.40,
1969/10/18,0.00,28.75,34.20,23.30,
1969/10/19,0.00,27.65,34.00,21.30,
1969/10/20,0.00,29.70,35.40,24.00,
1969/10/21,0.00,29.25,34.00,24.50,
1969/10/22,0.00,29.80,35.00,24.60,
1969/10/23,0.00,29.00,34.50,23.50,
1969/10/24,0.00,29.50,34.00,25.00,
1969/10/25,0.00,28.55,33.60,23.50,
1969/10/26,0.00,28.90,34.20,23.60,
1969/10/27,0.00,29.25,35.00,23.50,
1969/10/28,0.00,29.75,35.60,23.90,
1969/10/29,0.00,29.30,35.20,23.40,
1969/10/30,0.00,28.90,34.50,23.30,
1969/10/31,0.00,28.75,34.50,23.00,
1969/11/01,0.00,29.00,34.60,23.40,
1969/11/02,0.00,28.25,34.50,22.00,
1969/11/03,0.00,28.70,34.80,22.60,
1969/11/04,0.00,28.00,32.80,23.20,
1969/11/05,0.00,29.60,34.60,24.60,
1969/11/06,0.00,29.10,34.00,24.20,
1969/11/07,0.00,28.00,34.00,22.00,
1969/11/08,0.00,28.00,35.40,20.60,
1969/11/09,0.00,26.60,32.40,20.80,
1969/11/10,0.00,27.95,33.70,22.20,
1969/11/11,0.00,27.70,33.40,22.00,
1969/11/12,0.00,26.85,34.00,19.70,
1969/11/13,0.00,27.50,34.00,21.00,
1969/11/14,0.00,27.80,33.20,22.40,
1969/11/15,0.00,29.00,34.00,24.00,
1969/11/16,0.00,28.65,33.60,23.70,
1969/11/17,0.00,28.90,35.00,22.80,
1969/11/18,0.00,29.55,34.60,24.50,
1969/11/19,0.00,28.00,35.40,20.60,
1969/11/20,0.00,25.60,31.70,19.50,
1969/11/21,0.00,27.35,35.00,19.70,
1969/11/22,0.00,26.40,32.00,20.80,
1969/11/23,0.00,26.85,33.20,20.50,
1969/11/24,0.00,29.30,34.00,24.60,
1969/11/25,0.00,30.45,35.50,25.40,
1969/11/26,0.00,29.55,35.50,23.60,
1969/11/27,0.00,28.30,34.00,22.60,
1969/11/28,0.00,28.75,35.00,22.50,
1969/11/29,0.00,28.60,34.20,23.00,
1969/11/30,0.00,29.30,35.40,23.20,
1969/12/01,0.00,27.65,33.00,22.30,
1969/12/02,0.00,29.00,34.00,24.00,
1969/12/03,0.00,28.05,33.60,22.50,
1969/12/04,0.00,27.45,34.00,20.90,
1969/12/05,0.00,27.05,32.40,21.70,
1969/12/06,49.50,26.30,29.50,23.10,
1969/12/07,4.10,25.80,29.40,22.20,
1969/12/08,0.00,25.90,32.20,19.60,
1969/12/09,0.00,28.20,31.80,24.60,
1969/12/10,0.00,28.60,32.40,24.80,
1969/12/11,0.00,27.20,32.40,22.00,
1969/12/12,0.00,28.10,32.20,24.00,
1969/12/13,0.00,27.95,33.80,22.10,
1969/12/14,0.00,27.00,34.00,20.00,
1969/12/15,0.00,26.60,32.50,20.70,
1969/12/16,0.00,27.95,34.70,21.20,
1969/12/17,0.00,27.70,34.50,20.90,
1969/12/18,0.00,26.25,30.80,21.70,
1969/12/19,0.00,27.30,32.40,22.20,
1969/12/20,0.00,28.25,34.50,22.00,
1969/12/21,0.00,25.95,31.20,20.70,
1969/12/22,0.00,27.35,32.80,21.90,
1969/12/23,0.00,26.70,31.40,22.00,
1969/12/24,0.00,27.45,34.30,20.60,
1969/12/25,0.00,27.50,33.80,21.20,
1969/12/26,0.00,28.00,34.00,22.00,
1969/12/27,0.00,27.20,33.80,20.60,
1969/12/28,0.00,27.40,34.80,20.00,
1969/12/29,0.00,29.15,35.00,23.30,
1969/12/30,0.00,29.10,34.00,24.20,
1969/12/31,0.00,28.10,34.20,22.00,
1970/01/01,0.00,26.10,32.80,19.40,
1970/01/02,0.00,27.00,35.00,19.00,
1970/01/03,0.00,26.95,32.70,21.20,
1970/01/04,0.00,26.80,31.80,21.80,
1970/01/05,0.00,26.05,32.60,19.50,
1970/01/06,0.00,26.20,32.50,19.90,
1970/01/07,0.00,26.50,34.60,18.40,
1970/01/08,0.00,27.45,35.40,19.50,
1970/01/09,0.00,27.00,35.00,19.00,
1970/01/10,0.00,27.90,35.40,20.40,
1970/01/11,0.00,26.25,31.30,21.20,
1970/01/12,0.00,27.35,33.40,21.30,
1970/01/13,0.00,26.25,32.50,20.00,
1970/01/14,0.00,26.30,32.20,20.40,
1970/01/15,0.00,26.25,32.00,20.50,
1970/01/16,0.00,28.00,33.00,23.00,
1970/01/17,2.40,25.70,32.00,19.40,
1970/01/18,0.00,26.90,32.20,21.60,
1970/01/19,3.00,27.05,32.50,21.60,
1970/01/20,0.00,27.50,34.00,21.00,
1970/01/21,0.00,26.45,33.30,19.60,
1970/01/22,0.00,27.60,33.50,21.70,
1970/01/23,0.00,27.65,34.00,21.30,
1970/01/24,0.00,27.75,35.20,20.30,
1970/01/25,0.00,27.25,33.80,20.70,
1970/01/26,0.00,26.70,32.00,21.40,
1970/01/27,0.00,27.40,34.00,20.80,
1970/01/28,0.00,27.20,32.70,21.70,
1970/01/29,0.00,27.85,33.50,22.20,
1970/01/30,0.00,27.30,32.00,22.60,
1970/01/31,0.00,25.80,32.00,19.60,
1970/02/01,0.00,24.45,30.40,18.50,
1970/02/02,0.00,26.70,30.20,23.20,
1970/02/03,2.30,26.70,34.20,19.20,
1970/02/04,0.00,24.70,32.60,16.80,
1970/02/05,0.00,24.10,31.00,17.20,
1970/02/06,0.00,24.20,30.60,17.80,
1970/02/07,0.00,24.15,29.50,18.80,
1970/02/08,0.00,25.10,29.80,20.40,
1970/02/09,0.00,25.60,30.00,21.20,
1970/02/10,0.00,25.25,28.80,21.70,
1970/02/11,0.00,25.70,32.00,19.40,
1970/02/12,0.00,25.70,30.00,21.40,
1970/02/13,0.00,25.50,30.00,21.00,
1970/02/14,0.00,28.85,35.20,22.50,
1970/02/15,0.00,26.60,31.50,21.70,
1970/02/16,0.00,26.50,33.00,20.00,
1970/02/17,0.00,25.20,30.40,20.00,
1970/02/18,0.00,27.45,33.40,21.50,
1970/02/19,0.00,27.60,31.20,24.00,
1970/02/20,0.00,28.65,33.50,23.80,
1970/02/21,0.00,28.50,35.40,21.60,
1970/02/22,0.00,28.80,34.60,23.00,
1970/02/23,0.00,28.25,34.50,22.00,
1970/02/24,0.00,28.40,34.60,22.20,
1970/02/25,0.00,28.55,34.90,22.20,
1970/02/26,0.00,28.65,35.00,22.30,
1970/02/27,0.00,26.85,34.00,19.70,
1970/02/28,0.00,27.10,34.70,19.50,
1970/03/01,0.00,28.25,34.60,21.90,
1970/03/02,0.00,27.90,33.80,22.00,
1970/03/03,0.00,27.30,31.80,22.80,
1970/03/04,0.00,27.25,31.50,23.00,
1970/03/05,0.00,28.60,32.20,25.00,
1970/03/06,0.00,28.00,31.00,25.00,
1970/03/07,0.00,29.00,32.20,25.80,
1970/03/08,0.00,28.60,35.40,21.80,
1970/03/09,0.00,26.50,31.80,21.20,
1970/03/10,0.00,27.15,30.00,24.30,
1970/03/11,0.00,27.65,31.30,24.00,
1970/03/12,0.00,26.90,31.50,22.30,
1970/03/13,0.00,26.75,31.20,22.30,
1970/03/14,0.00,28.40,35.00,21.80,
1970/03/15,0.00,24.65,29.80,19.50,
1970/03/16,0.00,26.10,33.50,18.70,
1970/03/17,0.00,27.50,31.20,23.80,
1970/03/18,0.00,28.10,33.20,23.00,
1970/03/19,0.00,28.50,33.00,24.00,
1970/03/20,0.00,30.10,35.70,24.50,